STARLINK-11605 [DTC] (63134 NORAD) Tracking and Keplerian Element Data

This shows tracking and keplerian element data for the satellite.

Feedback or suggestion? Click here.




ElementValue
Catalog63134
NameSTARLINK-11605 [DTC]
Epoch Orbit4683
Epoch Day354.10625279
Epoch Year2025
RAAN10.6069
Inclination43
Eccentricity0.0002099
Argument of Perigee220.6167
Mean Anonmoly139.4545
Mean Motion15.71271238
Decay Rate0.00251508
L11 63134U 25043C 25354.10625279 .00251508 00000+0 18706-2 0 9996
L22 63134 43.0000 10.6069 0002099 220.6167 139.4545 15.71271238 46831



Live tracking and technical data element details for STARLINK-11605 [DTC] (NORAD 63134). STARLINK-11605 [DTC] can be tracked NOW for your location showing map with azimuth and elevation plus other details from your city location.







IsCatalogInMostPopularTable: catalog: 63134, numindb: 2
Update: records affected: 1



GetName: 63134 STARLINK-11605 [DTC]

Hit Count: updated at: Tue, 10 Feb 2026 02:31:40 GMT